336  
ASUS41 KBOX 200010  
RWRBOX  
 
REGIONAL WEATHER ROUNDUP  
NATIONAL WEATHER SERVICE BOSTON/NORTON MA  
800 PM EDT WED SEP 19 2018  
 
NOTE: "FAIR" INDICATES FEW OR NO CLOUDS BELOW 12,000 FEET WITH NO  
SIGNIFICANT WEATHER AND/OR S TO VISIBILITY
.  
 
MAZALL-200100-  
EASTERN MASSACHUSETTS  
 
CITY SKY/WX TMP DP RH WIND PRES REMARKS
 
BOSTON CLOUDY 63 55 75 NE13 30.06R  
6HR MIN TEMP: 63; 6HR MAX TEMP: 65;  
 
BEVERLY CLOUDY 61 56 83 NE3 30.07R  
LAWRENCE CLOUDY 63 55 75 E8 30.09R  
BEDFORD MOCLDY 60 54 80 NE7 30.06R  
BLUE HILL NOT AVBL  
NORWOOD CLOUDY 62 57 83 E9 30.04R  
MARSHFIELD CLOUDY 63 57 82 NE10G17 30.06R  
PLYMOUTH CLOUDY 62 55 77 NE12 30.05R  
TAUNTON FAIR 59 55 87 CALM 30.05R  
NEW BEDFORD CLOUDY 61 58 90 N6 30.03R  

 
 
MAZALL-200100-  
CAPE COD AND THE ISLANDS  
 
CITY SKY/WX TMP DP RH WIND PRES REMARKS
 
FALMOUTH NOT AVBL  
HYANNIS CLOUDY 62 56 80 NE14G24 30.01S  
CHATHAM CLOUDY 62 55 77 NE8G20 30.03R  
PROVINCETOWN CLOUDY 61 56 83 NE17G23 30.05R  
NANTUCKET CLOUDY 62 56 80 N20G31 30.00R  
MARTHAS VNYRD CLOUDY 62 56 80 NE15G29 30.02S  

 
 
MAZALL-200100-  
CENTRAL AND WESTERN MASSACHUSETTS  
 
CITY SKY/WX TMP DP RH WIND PRES REMARKS
 
WORCESTER CLOUDY 59 57 93 NE3 30.06R  
6HR MIN TEMP: 59; 6HR MAX TEMP: 62;  
 
FITCHBURG CLOUDY 61 57 87 NE3 30.07R  
ORANGE CLOUDY 65 59 81 E3 30.06R  
SPRINGFIELD NOT AVBL  
WESTFIELD CLOUDY 66 60 81 VRB5 30.02R  
NORTH ADAMS MOCLDY 62 59 90 CALM 30.03R  
PITTSFIELD FAIR 60 56 86 SE3 30.03R  

 
 
RIZALL-200100-  
RHODE ISLAND  
 
CITY SKY/WX TMP DP RH WIND PRES REMARKS
 
PROVIDENCE FAIR 60 56 86 NE12 30.05R  
6HR MIN TEMP: 60; 6HR MAX TEMP: 68;  
 
NEWPORT CLOUDY 61 56 83 NE15 30.04R  
BLOCK ISLAND CLOUDY 63 59 87 NE14 30.02R  
SMITHFIELD FAIR 57 55 94 NE6 30.06R  
WESTERLY FAIR 63 59 87 NE6 30.03R  

 
 
CTZALL-200100-  
CONNECTICUT  
 
CITY SKY/WX TMP DP RH WIND PRES REMARKS
 
BRADLEY INTL CLOUDY 67 60 78 E8 30.02R  
6HR MIN TEMP: 67; 6HR MAX TEMP: 78;  
 
HARTFORD CLOUDY 66 60 81 E3 30.02R  
BRIDGEPORT MOCLDY 71 64 78 E14 29.99R  
DANBURY FAIR 65 62 90 CALM 30.01R  
GROTON FAIR 64 59 83 NE10 30.01R  
NEW HAVEN CLOUDY 69 62 78 E10 30.00R  
CHESTER NOT AVBL  
MERIDEN CLOUDY 67 60 78 NE6 30.01R  
WILLIMANTIC CLOUDY 63 60 90 NE8 30.03R  
OXFORD CLOUDY 70 66 88 E5 30.02R  

 
 
MEZ002-015-021-024-NHZ003-005-008-011-012-014-VTZ005-008-200100-  
NORTHERN NEW ENGLAND  
 
CITY SKY/WX TMP DP RH WIND PRES REMARKS
 
PORTLAND ME CLOUDY 61 53 75 NE10 30.09R  
6HR MIN TEMP: 61; 6HR MAX TEMP: 65;  
 
BANGOR ME CLOUDY 58 54 86 N6 30.11R  
CONCORD NH CLOUDY 62 57 83 CALM 30.07R  
MANCHESTER NH CLOUDY 61 58 90 E5 30.06R  
NASHUA NH CLOUDY 61 60 97 NE5 30.08R  
PORTSMOUTH NH NOT AVBL  
JAFFREY NH CLOUDY 62 60 93 CALM 30.07R  
KEENE NH MOCLDY N/A N/A N/A VRB3 30.05R  
BURLINGTON VT CLOUDY 60 47 61 N7 30.13R  
MT. WASHINGTON FOG 39 39 100 NE5 N/A VSB 1/16  

 
 
NYZ052-076-200100-  
EASTERN NEW YORK  
 
CITY SKY/WX TMP DP RH WIND PRES REMARKS
 
ALBANY CLOUDY 67 54 63 N14G20 30.05R  
6HR MIN TEMP: 67; 6HR MAX TEMP: 75;  
 
NEW YORK CITY MOCLDY 74 67 78 SE9 29.97R  
6HR MIN TEMP: 74; 6HR MAX TEMP: 82;  
 

 
 
ANZALL-200100-  
MARINE OBSERVATIONS  
 
STATION/POSITION TIME TEMP WIND PRES VSBY WAVE
 
AIR SEA DIR/SP/G HT/PER  
(UTC) (F) (DEG/KT/KT) (MB) (MI) (FT/S)  
BOSTON BUOY 2350 62 67 40/ 17/ 19 1016.8R 5/ 7  
BUZZARDS BAY 2300 62 30/ 22/ 23 1016.2R  
NANTUCKET SOUND 2350 63 72 20/ 17/ 23 1016.3R 3/ 4  
MASS BAY-STELLWA 2304 62 65 50/ 14/ 17 1015.3R 1 7/8 4/ 5  
ISLE OF SHOALS 2300 60 60/ 14/ 16 1017.1R  
S OF BLOCK IS 2343 68 N/A 5/ 5  

 
   
.....................KEY......................
 
 
SKY/WX - SKY CONDITION/PRESENT WEATHER  
TMP - TEMPERATURE IN FAHRENHEIT  
DWPT - DEWPOINT IN FAHRENHEIT  
RH - RELATIVE HUMIDITY IN PERCENT  
WIND - DIRECTION AND SPEED IN MPH  
PRES - MEAN SEA LEVEL PRESSURE IN INCHES OF HG  
WCI - WIND CHILL INDEX  
VSB - VISIBILITY IN MILES  
HX - HEAT INDEX  
TC - TEMPERATURE IN CELSIUS  
VRB - VARIABLE WIND DIRECTION  
N/A - NOT AVAILABLE  
 
 
CLICK HERE TO GO TO PREVIOUS BULLETINS.

The Nexlab MA Page
The Nexlab RI Page
The Nexlab NH Page
The Nexlab CT Page Main Text Page